Weather History for KMJX - May, 2014

Change the Weather History Date:

Sunday, May 25, 2014

  Actual Average (KTTN) Record (KTTN)
Temperature  
Mean Temperature 63 °F 64 °F  
Max Temperature 80 °F 75 °F 93 °F (1880)
Min Temperature 46 °F 53 °F 40 °F (1956)
Degree Days  
Heating Degree Days 2 3  
Month to date heating degree days 151  
Since 1 July heating degree days 5119  
Cooling Degree Days 0 2  
Month to date cooling degree days 33  
Year to date cooling degree days 41  
Growing Degree Days 13 (Base 50)    
Moisture  
Dew Point 49 °F    
Average Humidity 64    
Maximum Humidity 100    
Minimum Humidity 28    
Precipitation  
Precipitation 0.00 in 0.19 in 2.02 in (1952)
Month to date precipitation 3.28  
Year to date precipitation 16.43  
Sea Level Pressure  
Sea Level Pressure 30.09 in    
Wind  
Wind Speed 2 mph (WNW)    
Max Wind Speed 12 mph    
Max Gust Speed 20 mph    
Visibility 7 miles    
Events      
T = Trace of Precipitation, MM = Missing Value Source: NWS Daily Summary

Daily Weather History Graph

Daily Weather History Graph

Search for Another Location

Airport or City:

Trip Planner

Search our weather history database for the weather conditions in past years. The results will help you decide how hot, cold, wet, or windy it might be!

Date:

Astronomy

May. 25, 2014 Rise Set
Actual Time 5:34 AM EDT 8:14 PM EDT
Civil Twilight 5:02 AM EDT 8:45 PM EDT
Nautical Twilight 4:23 AM EDT 9:25 PM EDT
Astronomical Twilight 3:39 AM EDT 10:10 PM EDT
Moon 3:37 AM EDT (5/25) 5:12 PM EDT (5/25)
Length of Visible Light 15h 43m
Length of Day
14h 40m
Waning Crescent, 10% of the Moon is Illuminated
May 25
Waning Crescent
May 28
New
Jun 5
First Quarter
Jun 13
Full
Jun 19
Last Quarter

Hourly Weather History & Observations

Time (EDT) Temp. Dew Point Humidity Pressure Visibility Wind Dir Wind Speed Gust Speed Precip Events Conditions
12:15 AM 50.0 °F 48.2 °F 94% 30.11 in 0.5 mi Calm Calm - N/A   Overcast
12:35 AM 50.0 °F 46.4 °F 87% 30.11 in 0.5 mi Calm Calm - N/A   Overcast
12:55 AM 51.8 °F 48.2 °F 88% 30.11 in 1.5 mi Calm Calm - N/A   Scattered Clouds
1:15 AM 48.2 °F 48.2 °F 100% 30.11 in 1.0 mi Calm Calm - N/A   Mostly Cloudy
1:35 AM 48.2 °F 48.2 °F 100% 30.11 in 3.0 mi Calm Calm - N/A   Partly Cloudy
2:15 AM 46.4 °F 44.6 °F 93% 30.10 in 5.0 mi Calm Calm - N/A   Clear
2:35 AM 46.4 °F 44.6 °F 93% 30.09 in 0.2 mi Calm Calm - N/A   Overcast
2:55 AM 46.4 °F 44.6 °F 93% 30.09 in 0.2 mi Calm Calm - N/A   Overcast
3:15 AM 46.4 °F 44.6 °F 93% 30.09 in 0.5 mi Calm Calm - N/A   Overcast
3:35 AM 48.2 °F 46.4 °F 93% 30.09 in 0.2 mi Calm Calm - N/A   Overcast
3:55 AM 48.2 °F 46.4 °F 93% 30.08 in 0.2 mi Calm Calm - N/A   Overcast
4:15 AM 48.2 °F 46.4 °F 93% 30.08 in 0.5 mi Calm Calm - N/A   Overcast
4:35 AM 50.0 °F 48.2 °F 94% 30.08 in 0.2 mi Calm Calm - N/A   Overcast
4:55 AM 50.0 °F 48.2 °F 94% 30.08 in 0.2 mi Calm Calm - N/A   Overcast
5:15 AM 50.0 °F 48.2 °F 94% 30.08 in 0.2 mi Calm Calm - N/A   Overcast
5:35 AM 50.0 °F 48.2 °F 94% 30.09 in 0.2 mi Calm Calm - N/A   Overcast
5:55 AM 51.8 °F 48.2 °F 88% 30.09 in 0.2 mi Calm Calm - N/A   Overcast
6:15 AM 51.8 °F 50.0 °F 94% 30.10 in 0.2 mi Calm Calm - N/A   Overcast
6:35 AM 51.8 °F 51.8 °F 100% 30.10 in 0.2 mi Calm Calm - N/A   Overcast
6:55 AM 51.8 °F 51.8 °F 100% 30.10 in 0.2 mi Calm Calm - N/A   Overcast
7:15 AM 55.4 °F 53.6 °F 94% 30.11 in 8.0 mi Calm Calm - N/A   Scattered Clouds
7:35 AM 51.8 °F 51.8 °F 100% 30.12 in 10.0 mi NNW 4.6 mph - N/A   Clear
7:55 AM 55.4 °F 53.6 °F 94% 30.12 in 10.0 mi NNW 4.6 mph - N/A   Clear
8:15 AM 60.8 °F 55.4 °F 82% 30.12 in 10.0 mi NW 4.6 mph - N/A   Clear
8:35 AM 60.8 °F 55.4 °F 82% 30.12 in 10.0 mi NW 5.8 mph - N/A   Clear
8:55 AM 62.6 °F 55.4 °F 77% 30.12 in 10.0 mi NW 5.8 mph - N/A   Clear
9:15 AM 64.4 °F 55.4 °F 73% 30.13 in 10.0 mi Calm Calm - N/A   Clear
9:35 AM 66.2 °F 55.4 °F 68% 30.12 in 10.0 mi Calm Calm - N/A   Clear
9:55 AM 68.0 °F 53.6 °F 60% 30.12 in 10.0 mi North 4.6 mph - N/A   Clear
10:15 AM 69.8 °F 55.4 °F 60% 30.12 in 10.0 mi NW 6.9 mph - N/A   Clear
11:15 AM 73.4 °F 53.6 °F 50% 30.13 in 10.0 mi NW 8.1 mph - N/A   Clear
11:35 AM 73.4 °F 51.8 °F 47% 30.12 in 10.0 mi NW 10.4 mph - N/A   Clear
11:55 AM 75.2 °F 50.0 °F 41% 30.12 in 10.0 mi NW 9.2 mph - N/A   Clear
12:15 PM 75.2 °F 51.8 °F 44% 30.12 in 10.0 mi WNW 9.2 mph - N/A   Clear
12:35 PM 75.2 °F 50.0 °F 41% 30.11 in 10.0 mi WNW 6.9 mph - N/A   Clear
12:55 PM 75.2 °F 50.0 °F 41% 30.11 in 10.0 mi West 8.1 mph - N/A   Clear
1:15 PM 75.2 °F 50.0 °F 41% 30.10 in 10.0 mi North 5.8 mph - N/A   Partly Cloudy
1:35 PM 77.0 °F 50.0 °F 39% 30.09 in 10.0 mi WNW 9.2 mph 16.1 mph N/A   Scattered Clouds
1:55 PM 78.8 °F 50.0 °F 36% 30.09 in 10.0 mi West 5.8 mph - N/A   Mostly Cloudy
2:15 PM 78.8 °F 48.2 °F 34% 30.09 in 10.0 mi Calm Calm - N/A   Mostly Cloudy
2:35 PM 80.6 °F 48.2 °F 32% 30.08 in 10.0 mi NNW 5.8 mph 19.6 mph N/A   Partly Cloudy
2:55 PM 80.6 °F 46.4 °F 30% 30.07 in 10.0 mi West 10.4 mph 16.1 mph N/A   Partly Cloudy
3:15 PM 78.8 °F 46.4 °F 32% 30.06 in 10.0 mi WNW 9.2 mph - N/A   Scattered Clouds
3:35 PM 77.0 °F 44.6 °F 32% 30.07 in 10.0 mi NNW 6.9 mph - N/A   Overcast
3:55 PM 77.0 °F 46.4 °F 34% 30.07 in 10.0 mi NW 8.1 mph - N/A   Overcast
4:15 PM 77.0 °F 46.4 °F 34% 30.06 in 10.0 mi Calm Calm - N/A   Overcast
4:35 PM 78.8 °F 44.6 °F 30% 30.05 in 10.0 mi Calm Calm - N/A   Scattered Clouds
4:55 PM 78.8 °F 46.4 °F 32% 30.05 in 10.0 mi Calm Calm - N/A   Scattered Clouds
5:35 PM 80.6 °F 44.6 °F 28% 30.05 in 10.0 mi West 4.6 mph - N/A   Mostly Cloudy
5:55 PM 80.6 °F 46.4 °F 30% 30.05 in 10.0 mi West 11.5 mph - N/A   Mostly Cloudy
6:15 PM 80.6 °F 46.4 °F 30% 30.05 in 10.0 mi WNW 5.8 mph - N/A   Partly Cloudy
6:35 PM 78.8 °F 46.4 °F 32% 30.04 in 10.0 mi West 6.9 mph - N/A   Clear
6:55 PM 78.8 °F 46.4 °F 32% 30.04 in 10.0 mi WSW 6.9 mph - N/A   Clear
7:15 PM 78.8 °F 46.4 °F 32% 30.05 in 10.0 mi West 3.5 mph - N/A   Clear
7:35 PM 75.2 °F 48.2 °F 38% 30.05 in 10.0 mi Calm Calm - N/A   Clear
7:55 PM 73.4 °F 51.8 °F 47% 30.06 in 10.0 mi Calm Calm - N/A   Clear
8:15 PM 69.8 °F 55.4 °F 60% 30.06 in 6.0 mi Calm Calm - N/A   Clear
8:35 PM 66.2 °F 53.6 °F 64% 30.07 in 6.0 mi Calm Calm - N/A   Clear
8:55 PM 66.2 °F 53.6 °F 64% 30.07 in 5.0 mi Calm Calm - N/A   Clear
9:15 PM 62.6 °F 51.8 °F 68% 30.08 in 10.0 mi Calm Calm - N/A   Clear
9:35 PM 60.8 °F 51.8 °F 72% 30.08 in 10.0 mi Calm Calm - N/A   Clear
9:55 PM 60.8 °F 50.0 °F 68% 30.09 in 10.0 mi Calm Calm - N/A   Clear
10:15 PM 59.0 °F 48.2 °F 67% 30.09 in 10.0 mi WSW 3.5 mph - N/A   Clear
10:35 PM 60.8 °F 48.2 °F 63% 30.09 in 10.0 mi Calm Calm - N/A   Clear
10:55 PM 59.0 °F 48.2 °F 67% 30.09 in 10.0 mi WSW 3.5 mph - N/A   Clear
11:15 PM 60.8 °F 48.2 °F 63% 30.09 in 10.0 mi WSW 3.5 mph - N/A   Clear
11:35 PM 60.8 °F 48.2 °F 63% 30.09 in 10.0 mi WSW 5.8 mph - N/A   Clear
11:55 PM 62.6 °F 48.2 °F 59% 30.09 in 10.0 mi WSW 5.8 mph - N/A   Clear